weather.gov     
National Weather Service

Terminal Aerodrome Forecast
NWS Homepage
This page is being discontinued on March 12, 2014.
The same data is available at this site. Please update your bookmarks.
Thank you, and we apologize for the inconvenience.
Please send an email to SR-SRH.Webmaster@noaa.gov with any concerns.


Current Version
Previous Version:    01  02  03  04  05  06  07  08  09  10  11  12  13  14  15  16  17  18  19  20  21  
[Printable]
897
FTUS46 KOTX 201139
TAFPUW
TAF
KPUW 201139Z 2012/2112 09010KT P6SM SCT200
     FM202000 16012KT P6SM BKN200
     FM210500 20007KT P6SM VCSH BKN070 OVC100
     FM210700 25004KT 6SM -RA BR SCT025 OVC040=


897
FTUS46 KOTX 201139
TAFPUW
TAF
KPUW 201139Z 2012/2112 09010KT P6SM SCT200
     FM202000 16012KT P6SM BKN200
     FM210500 20007KT P6SM VCSH BKN070 OVC100
     FM210700 25004KT 6SM -RA BR SCT025 OVC040=




U.S. Dept. of Commerce
NOAA National Weather Service
1325 East West Highway
Silver Spring, MD 20910
E-mail: w-nws.webmaster@noaa.gov
Page last modified: May 16, 2007
NATIONAL WEATHER SERVICE: for Safety, for Work, for Fun - FOR LIFE